STARLINK-32176, 60340

Orbit data source: Space-Track

STARLINK-32176, 60340 is a payload satellite owned by SpaceX/Seattle (US) in LEO that was launched on Fri, 02 Aug 2024 UTC via an FALCON 9 launch vehicle from the Air Force Eastern Test Range (AFETR). Payload-class satellites include a variety of spacecraft equipped with specific instruments for various scientific and technological missions. These include communications satellites like Starlink; space stations such as the ISS; scientific satellites like the Hubble; Earth observation satellites from companies like Planet Labs, Umbra, and HawkEye 360; GPS; miniature CubeSats for education and research; and military/defense satellites.

Loading next visibility...
Identifier
60340, 2024-136M
Orbit
LEO
Last TLE update
11 hours ago
Origin
Manufacturer
SpaceX/Seattle
Mission
Operational Commercial Communications
Bus & Motor
STARLINK V2M, Unknown motor
Mass
730 kg wet, ~700 kg dry
Launch date (UTC)
2024-08-02 (9 months ago)
Launch vehicle
FALCON 9
Launch site
Air Force Eastern Test Range (AFETR)
Object type
Payload
Rocket body
Debris
Shape & HBR
Box + 2 Pan, 29 m
Radar Cross Section
33.884 m², Large (>1 m²)

Expand to show TLE details & history

TLE from 11 hours ago
0 STARLINK-32176
1 60340U 24136M   25133.10476185  .00001881  00000-0  75700-4 0  9996
2 60340  53.1612  31.8530 0001289  98.6898 261.4249 15.30165563 44811
Epoch: 2025-05-13T02:30Z
Definitive object data (Epoch: 2025-05-13T02:30:51.423Z)
Latitude
-0.00002°
Longitude
123.03044°
Altitude
476.35 km
Speed
7.629 km/s
True Right ascension
02h 07m 24s
True Declination
0° 00' 00"
Sunlit
Object was in daylight at TLE epoch
Visualization TLE readout
Latitude
43.28773°
Longitude
165.42538°
Altitude
478.952 km
Speed
7.632 km/s
Apparent Right ascension
07h 31m 47s
Apparent Declination
4° 31' 59"
Sunlit
Object is in daylight
Visualization observer readout
Local Sidereal Time
22:10:21
Azimuth
48.984° ENE
Elevation
-32.551°
Doppler factor
1
Orbital elements
Apogee altitude
476.458 km
Perigee altitude
474.691 km
Semi-major axis
6,853.711 km
Eccentricity
0.0001289
Inclination
53.1612°
RAAN
31.853°
Arg. of periapsis
98.6898°
True anomaly
261.41029°
Mean anomaly
261.4249°
Eccentric anomaly
261.4176°
Mean motion
3.8252 °/min
BSTAR
0.0000757
Orbital period
94.11 mins
Loading maneuver chart data...
Loading SW <> Apogee altitude chart data...
Loading historical data...
Loading historical data...
Loading historical data...
Loading historical data...
Loading historical data...
Loading historical data...
Loading historical data...

STARLINK-32176 Visibility forecast

Observer location: undefined°, undefined°

Span
Click to sort rows by Start time (UTC) header in descending order
Start Az.
Max El. time (UTC)
Max El. Az.
Max El.
End time (UTC)
End Az.
6 mins2025-05-13 19:56:33.104Z226.815° WSW2025-05-13 19:59:33.104Z64.415° ENE43.763°2025-05-13 20:02:33.104Z51.053° ENE
4 mins2025-05-14 00:53:33.104Z339.955° N2025-05-14 00:55:33.104Z13.58° NNE15.627°2025-05-14 00:57:33.104Z51.181° ENE
5 mins2025-05-14 02:32:33.104Z320.247° NNW2025-05-14 02:34:33.104Z71.245° E42.713°2025-05-14 02:37:33.104Z122.554° SE
|